Location: Clayton (historical)
(34.0300°N, 118.0259°W)
Time: 03:45:24
(UTC+00:00)

ISS - Pass Details

Date: 22 January 2021
Orbit: 417 x 422 km, 51.6° (Epoch: 01 March)

Event Time Altitude Azimuth Distance (km) Brightness Sun altitude
Rises 02:09:30 0° 265° (W) 2,361 1.9 -12.0°
Reaches altitude 10° 02:12:09 10° 288° (WNW) 1,501 0.0 -12.5°
Maximum altitude 02:14:23 16° 329° (NNW) 1,176 -1.3 -13.0°
Drops below altitude 10° 02:16:37 10° 10° (N) 1,506 -1.2 -13.4°
Enters shadow 02:17:04 - 16° (NNE) 1,631 -1.1 -13.5°
